DW7980 Weather Reports


Display with metric or nautical units.
time (UTC)temp
F
wind
direction
speed
MPH
gust
MPH
rain 1hr
in
rain 24hr
in
rain mn
in
humidity
%
barometer
mb
20260903222043 62 0 0.0 2.0 0.01 0.38 0.12 77 1010.4
20260903221557 62 170 0.0 6.0 0.01 0.38 0.12 75 1010.3
20260903221041 62 170 1.0 6.0 0.01 0.38 0.12 75 1010.3
20260903220541 62 163 1.0 6.0 0.01 0.38 0.12 73 1010.3
20260903220123 62 200 2.0 5.0 0.01 0.38 0.12 78 1010.4
20260903215539 61 0 0.0 3.0 0.01 0.39 0.12 79 1010.4
20260903215041 61 228 0.0 5.0 0.01 0.39 0.12 78 1010.4
20260903214600 60 252 0.0 6.0 0.01 0.39 0.12 77 1010.5
20260903214041 60 170 2.0 6.0 0.01 0.39 0.12 76 1010.4
20260903213541 60 230 0.0 5.0 0.01 0.39 0.12 79 1010.6
20260903213105 60 179 1.0 7.0 0.01 0.39 0.12 79 1010.7
20260903212541 60 184 2.0 7.0 0.01 0.39 0.12 78 1010.7
20260903212042 60 224 2.0 6.0 0.00 0.38 0.11 79 1010.8
20260903211600 59 298 1.0 8.0 0.00 0.38 0.11 79 1010.8
20260903211042 59 189 2.0 9.0 0.00 0.38 0.11 78 1010.8
20260903210542 59 233 3.0 9.0 0.00 0.38 0.11 79 1010.8
20260903210106 59 199 2.0 9.0 0.00 0.38 0.11 81 1010.7
20260903205541 59 182 3.0 9.0 0.00 0.45 0.11 80 1010.9
20260903205044 59 176 1.0 7.0 0.00 0.45 0.11 81 1010.8
20260903204600 59 227 3.0 7.0 0.00 0.45 0.11 80 1010.8
20260903204042 59 231 3.0 9.0 0.01 0.45 0.11 80 1010.8
20260903203539 59 217 3.0 11.0 0.01 0.45 0.11 80 1010.8
20260903203131 59 193 3.0 11.0 0.01 0.45 0.11 81 1010.8
20260903202542 59 207 3.0 10.0 0.01 0.45 0.11 82 1010.7
20260903202042 59 232 2.0 5.0 0.01 0.45 0.11 83 1010.7
20260903201558 59 0 1.0 5.0 0.01 0.45 0.11 84 1010.7
20260903201042 59 0 1.0 5.0 0.01 0.45 0.11 84 1010.7
20260903200539 59 0 0.0 4.0 0.01 0.45 0.11 84 1010.7
20260903200056 58 0 1.0 4.0 0.01 0.45 0.11 84 1010.8
20260903195548 59 0 0.0 6.0 0.01 0.61 0.11 85 1010.7
20260903195041 59 0 0.0 6.0 0.01 0.61 0.11 83 1010.8
20260903194557 59 0 2.0 6.0 0.01 0.61 0.11 82 1010.9
20260903194042 59 217 2.0 7.0 0.00 0.60 0.10 81 1010.8
20260903193546 59 186 3.0 7.0 0.01 0.60 0.10 79 1010.8
20260903193103 59 201 3.0 7.0 0.01 0.60 0.10 80 1010.7
20260903192539 59 171 3.0 6.0 0.01 0.60 0.10 82 1010.7
20260903192039 59 273 1.0 6.0 0.01 0.60 0.10 83 1010.7
20260903191601 59 238 1.0 8.0 0.01 0.60 0.10 84 1010.9
20260903191039 59 0 3.0 8.0 0.01 0.60 0.10 82 1010.8
20260903190544 59 200 2.0 6.0 0.01 0.60 0.10 83 1011.0
20260903190056 59 240 1.0 6.0 0.01 0.60 0.10 85 1010.9
20260903185541 58 160 1.0 5.0 0.01 0.66 0.10 84 1011.0
20260903185041 58 182 0.0 8.0 0.01 0.66 0.10 84 1010.9
20260903184601 58 215 2.0 8.0 0.01 0.66 0.10 84 1010.9
20260903184038 58 215 3.0 8.0 0.01 0.66 0.10 83 1010.9
20260903183539 58 197 2.0 7.0 0.00 0.65 0.09 83 1010.9
20260903183102 58 184 2.0 6.0 0.00 0.65 0.09 83 1010.9
20260903182539 58 0 1.0 8.0 0.00 0.65 0.09 83 1010.8
20260903182041 59 242 2.0 8.0 0.00 0.65 0.09 83 1010.9
20260903181604 59 123 2.0 7.0 0.00 0.65 0.09 82 1010.8
20260903181038 59 231 2.0 10.0 0.00 0.65 0.09 82 1010.7
20260903180538 59 219 2.0 10.0 0.00 0.65 0.09 82 1010.7
20260903180104 60 263 4.0 10.0 0.00 0.65 0.09 81 1010.5
20260903175540 60 193 2.0 5.0 0.00 0.70 0.09 85 1010.4
20260903175039 59 176 0.0 5.0 0.00 0.70 0.09 86 1010.4
20260903174604 59 241 2.0 11.0 0.00 0.70 0.09 85 1010.4
20260903174042 58 221 3.0 11.0 0.00 0.70 0.09 86 1010.4
20260903173542 58 218 2.0 6.0 0.00 0.70 0.09 87 1010.3
20260903173101 58 222 2.0 6.0 0.00 0.70 0.09 89 1010.4
20260903172538 58 0 2.0 5.0 0.00 0.70 0.09 90 1010.4
20260903172038 58 171 2.0 4.0 0.00 0.70 0.09 92 1010.4
20260903171614 58 0 0.0 0.0 0.00 0.70 0.09 93 1010.6
20260903171039 57 0 0.0 0.0 0.00 0.70 0.09 93 1010.6
20260903170538 57 0 0.0 0.0 0.00 0.70 0.09 92 1010.6
20260903165538 56 0 0.0 0.0 0.00 0.70 0.09 92 1010.8
20260903165039 56 0 0.0 0.0 0.00 0.70 0.09 92 1010.7
20260903164637 56 0 0.0 0.0 0.00 0.70 0.09 92 1010.7
20260903164039 55 0 0.0 0.0 0.00 0.70 0.09 92 1010.8
20260903163538 55 0 0.0 0.0 0.00 0.70 0.09 92 1010.8
20260903163103 56 0 0.0 0.0 0.00 0.70 0.09 93 1010.8
20260903162538 56 0 0.0 0.0 0.00 0.70 0.09 93 1010.8
20260903162038 55 0 0.0 1.0 0.01 0.70 0.09 93 1010.7
20260903161601 55 0 0.0 1.0 0.02 0.70 0.09 93 1010.7
20260903161039 54 0 0.0 1.0 0.02 0.70 0.09 92 1010.8
20260903160538 54 0 0.0 1.0 0.03 0.70 0.09 92 1010.8
20260903160056 54 0 0.0 1.0 0.04 0.70 0.09 92 1010.8
20260903155538 54 0 0.0 1.0 0.04 0.70 0.09 92 1010.8
20260903155038 54 0 0.0 0.0 0.04 0.70 0.09 92 1010.8
20260903154606 54 0 0.0 0.0 0.05 0.70 0.09 92 1010.8
20260903154041 53 0 0.0 0.0 0.05 0.70 0.09 92 1010.8
20260903153538 53 0 0.0 0.0 0.05 0.70 0.09 92 1010.8
20260903153103 53 0 0.0 2.0 0.05 0.70 0.09 92 1010.9
20260903152542 53 0 0.0 2.0 0.05 0.70 0.09 92 1010.9
20260903152043 53 0 0.0 2.0 0.05 0.69 0.08 92 1010.9
20260903151604 53 0 0.0 2.0 0.04 0.68 0.07 92 1010.9
20260903151041 53 0 0.0 0.0 0.04 0.68 0.07 92 1011.0
20260903150541 53 0 0.0 0.0 0.04 0.67 0.06 92 1010.9
20260903150101 53 0 0.0 0.0 0.03 0.66 0.05 92 1010.9
20260903145538 53 0 0.0 0.0 0.03 0.66 0.05 92 1010.9
20260903145041 53 0 0.0 0.0 0.03 0.66 0.05 92 1010.8
20260903144607 53 0 0.0 1.0 0.02 0.65 0.04 92 1010.9
20260903144045 53 0 0.0 2.0 0.02 0.65 0.04 92 1010.9
20260903143541 53 0 0.0 3.0 0.02 0.65 0.04 92 1010.8
20260903143058 53 183 1.0 3.0 0.02 0.65 0.04 92 1010.7
20260903142541 53 0 0.0 2.0 0.02 0.65 0.04 92 1010.6
20260903142042 53 0 0.0 3.0 0.01 0.64 0.03 92 1010.6
20260903141554 53 203 0.0 3.0 0.01 0.64 0.03 92 1010.6
20260903141041 52 201 0.0 4.0 0.01 0.64 0.03 92 1010.4
20260903140542 52 191 1.0 4.0 0.00 0.63 0.02 92 1010.4
20260903140056 52 229 0.0 3.0 0.00 0.63 0.02 92 1010.5
20260903135542 52 0 0.0 3.0 0.00 0.63 0.02 92 1010.6
20260903135039 52 0 0.0 3.0 0.00 0.63 0.02 92 1010.4
20260903134553 52 0 0.0 3.0 0.00 0.63 0.02 92 1010.2
20260903134039 52 244 0.0 2.0 0.00 0.63 0.02 92 1010.3
20260903133545 52 0 0.0 6.0 0.00 0.63 0.02 92 1010.1
20260903133105 52 0 0.0 6.0 0.00 0.63 0.02 92 1010.0
20260903132538 52 0 2.0 6.0 0.00 0.63 0.02 92 1009.9
20260903132046 52 0 0.0 4.0 0.00 0.63 0.02 92 1009.9
20260903131557 52 0 0.0 2.0 0.00 0.63 0.02 92 1009.9
20260903131041 52 0 0.0 0.0 0.00 0.63 0.02 92 1009.9
20260903130543 51 0 0.0 0.0 0.00 0.63 0.02 92 1010.0
20260903125538 51 0 0.0 0.0 0.00 0.63 0.02 92 1010.0
20260903125040 51 0 0.0 0.0 0.00 0.63 0.02 92 1010.0
20260903124619 51 0 0.0 0.0 0.00 0.63 0.02 92 1010.1
20260903124046 51 0 0.0 0.0 0.00 0.63 0.02 92 1010.1
20260903123546 51 0 0.0 0.0 0.00 0.63 0.02 92 1010.1
20260903123057 51 0 0.0 0.0 0.00 0.63 0.02 92 1010.1
20260903122538 51 0 0.0 0.0 0.00 0.63 0.02 92 1010.1
20260903122038 51 0 0.0 0.0 0.00 0.63 0.02 92 1010.1
20260903121600 51 0 0.0 0.0 0.00 0.63 0.02 91 1010.1
20260903121038 51 0 0.0 0.0 0.00 0.63 0.02 91 1010.1
20260903120542 51 0 0.0 0.0 0.00 0.63 0.02 91 1010.2
20260903120110 51 0 0.0 0.0 0.00 0.63 0.02 91 1010.2
20260903115538 51 0 0.0 0.0 0.00 0.63 0.02 91 1010.2
20260903115038 51 0 0.0 0.0 0.00 0.63 0.02 91 1010.2
20260903114601 51 0 0.0 0.0 0.00 0.63 0.02 91 1010.1
20260903114038 51 0 0.0 0.0 0.00 0.63 0.02 91 1010.1
20260903113539 51 0 0.0 0.0 0.00 0.63 0.02 91 1010.1
20260903113133 51 0 0.0 0.0 0.00 0.63 0.02 91 1010.1
20260903112540 51 0 0.0 0.0 0.00 0.63 0.02 91 1010.2
20260903112039 51 0 0.0 0.0 0.00 0.63 0.02 91 1010.2
20260903111553 51 0 0.0 0.0 0.00 0.63 0.02 91 1010.2
20260903111039 51 0 0.0 0.0 0.00 0.63 0.02 91 1010.2
20260903110539 52 0 0.0 0.0 0.00 0.63 0.02 91 1010.2
20260903110109 52 0 0.0 0.0 0.00 0.63 0.02 91 1010.3
20260903105539 52 0 0.0 0.0 0.00 0.63 0.02 91 1010.2
20260903105038 52 0 0.0 0.0 0.00 0.63 0.02 91 1010.3
20260903104607 52 0 0.0 0.0 0.00 0.63 0.02 91 1010.4
20260903104038 52 0 0.0 0.0 0.00 0.63 0.02 91 1010.4
20260903103539 52 0 0.0 0.0 0.00 0.63 0.02 91 1010.4
20260903103106 52 0 0.0 0.0 0.00 0.63 0.02 91 1010.5
20260903102539 52 0 0.0 3.0 0.00 0.63 0.02 91 1010.5
20260903102038 52 0 0.0 3.0 0.00 0.63 0.02 91 1010.3
20260903101603 53 227 0.0 3.0 0.00 0.63 0.02 91 1010.3
20260903101038 53 227 0.0 4.0 0.00 0.63 0.02 91 1010.2
20260903100538 53 225 0.0 4.0 0.00 0.63 0.02 91 1010.2
20260903100104 53 198 1.0 4.0 0.00 0.63 0.02 91 1010.1
20260903095538 53 193 2.0 4.0 0.00 0.63 0.02 91 1010.1
20260903095040 53 0 0.0 2.0 0.00 0.63 0.02 91 1010.1
20260903094557 53 0 0.0 2.0 0.00 0.63 0.02 91 1010.1
20260903094039 53 0 0.0 3.0 0.00 0.63 0.02 91 1010.0
20260903093539 53 223 1.0 4.0 0.00 0.63 0.02 91 1010.2
20260903093106 53 229 1.0 4.0 0.00 0.63 0.02 91 1010.2
20260903092539 53 227 1.0 3.0 0.00 0.63 0.02 91 1010.2
20260903092040 53 240 1.0 3.0 0.00 0.63 0.02 91 1010.2
20260903091557 53 242 0.0 2.0 0.00 0.63 0.02 91 1010.3
20260903091041 53 0 0.0 2.0 0.00 0.63 0.02 91 1010.3
20260903090538 53 0 0.0 1.0 0.01 0.63 0.02 91 1010.3
20260903090101 53 0 0.0 2.0 0.01 0.63 0.02 91 1010.3
20260903085537 53 0 0.0 2.0 0.01 0.63 0.02 91 1010.4
20260903085038 53 0 0.0 3.0 0.01 0.63 0.02 91 1010.3
20260903084556 53 0 0.0 3.0 0.01 0.63 0.02 91 1010.3
20260903084039 53 0 0.0 3.0 0.01 0.63 0.02 91 1010.2
20260903083541 53 0 0.0 3.0 0.01 0.63 0.02 91 1010.4
20260903083055 54 221 0.0 2.0 0.01 0.63 0.02 91 1010.3
20260903082538 54 0 0.0 2.0 0.01 0.63 0.02 91 1010.4
20260903082038 54 0 0.0 2.0 0.01 0.63 0.02 91 1010.4
20260903081604 54 0 0.0 1.0 0.01 0.63 0.02 91 1010.6
20260903081039 54 0 0.0 1.0 0.01 0.63 0.02 91 1010.6
20260903080538 54 0 0.0 2.0 0.00 0.62 0.01 91 1010.6
20260903075538 54 0 0.0 3.0 0.01 0.62 0.01 91 1010.6
20260903075038 54 0 0.0 3.0 0.01 0.62 0.01 91 1010.5
20260903074555 54 233 0.0 2.0 0.01 0.62 0.01 91 1010.6
20260903074038 54 0 0.0 4.0 0.01 0.62 0.01 91 1010.5
20260903073539 54 0 0.0 4.0 0.01 0.62 0.01 91 1010.5
20260903073054 54 237 0.0 4.0 0.02 0.62 0.01 91 1010.4
20260903072538 54 246 1.0 3.0 0.02 0.62 0.01 91 1010.4
20260903072039 54 0 0.0 3.0 0.02 0.62 0.01 91 1010.5
20260903071614 54 180 0.0 5.0 0.04 0.62 0.01 91 1010.6
20260903071038 54 174 0.0 5.0 0.07 0.62 0.01 91 1010.5
20260903070538 54 171 1.0 4.0 0.07 0.62 0.01 91 1010.5
20260903070103 54 0 0.0 5.0 0.06 0.61 0.00 91 1010.6
20260903065543 54 0 1.0 5.0 0.06 0.61 0.61 91 1010.6
20260903065038 54 219 2.0 5.0 0.06 0.61 0.61 91 1010.6
20260903064558 54 229 1.0 5.0 0.06 0.61 0.61 91 1010.8
20260903064040 54 246 2.0 5.0 0.06 0.61 0.61 91 1010.6
20260903063539 54 191 1.0 5.0 0.06 0.61 0.61 91 1010.6
20260903063054 54 209 1.0 8.0 0.05 0.60 0.60 91 1010.7
20260903062539 54 228 1.0 8.0 0.05 0.60 0.60 91 1010.7
20260903062044 54 229 1.0 5.0 0.05 0.60 0.60 91 1010.7
20260903061554 54 178 2.0 5.0 0.02 0.57 0.57 91 1010.7
20260903061041 54 227 1.0 5.0 0.00 0.55 0.55 91 1010.6
20260903060540 54 221 1.0 5.0 0.00 0.55 0.55 91 1010.5
20260903060104 54 0 0.0 0.0 0.00 0.55 0.55 91 1010.5
20260903055537 54 0 0.0 0.0 0.00 0.55 0.55 91 1010.6
20260903055042 54 0 0.0 0.0 0.00 0.55 0.55 91 1010.5
20260903054557 54 0 0.0 2.0 0.00 0.55 0.55 91 1010.6
20260903054040 54 0 0.0 2.0 0.00 0.55 0.55 91 1010.6
20260903053539 54 0 0.0 3.0 0.00 0.55 0.55 91 1010.6
20260903053052 54 219 0.0 3.0 0.00 0.55 0.55 91 1010.6
20260903052542 54 0 0.0 3.0 0.00 0.55 0.55 91 1010.6
20260903052040 54 216 0.0 2.0 0.00 0.55 0.55 91 1010.6
20260903051616 54 0 0.0 3.0 0.00 0.55 0.55 91 1010.4
20260903051039 54 216 0.0 3.0 0.00 0.55 0.55 91 1010.6
20260903050540 54 0 1.0 3.0 0.00 0.55 0.55 91 1010.4
20260903045539 54 0 0.0 2.0 0.00 0.55 0.55 91 1010.4
20260903045037 54 0 0.0 3.0 0.00 0.55 0.55 91 1010.5
20260903044554 54 0 0.0 3.0 0.00 0.55 0.55 91 1010.4
20260903044041 54 0 0.0 2.0 0.00 0.55 0.55 91 1010.3
20260903043538 55 0 0.0 2.0 0.00 0.55 0.55 91 1010.3
20260903043207 55 0 0.0 2.0 0.00 0.55 0.55 91 1010.2
20260903042540 55 0 0.0 2.0 0.00 0.55 0.55 91 1010.2
20260903042038 55 0 0.0 2.0 0.00 0.55 0.55 91 1010.2
20260903041605 55 0 0.0 2.0 0.00 0.55 0.55 91 1010.1
20260903041041 55 0 0.0 0.0 0.00 0.55 0.55 91 1010.0
20260903040539 55 0 0.0 2.0 0.01 0.55 0.55 91 1010.0
20260903040058 55 0 0.0 2.0 0.01 0.55 0.55 91 1010.0
20260903035538 55 0 0.0 2.0 0.01 0.55 0.55 91 1009.9
20260903035038 55 227 0.0 3.0 0.01 0.55 0.55 91 1009.9
20260903034551 56 0 0.0 3.0 0.01 0.55 0.55 91 1009.8
20260903034041 56 0 0.0 3.0 0.01 0.55 0.55 91 1009.7
20260903033538 56 217 0.0 3.0 0.01 0.55 0.55 91 1009.6
20260903033100 56 219 0.0 2.0 0.01 0.55 0.55 91 1009.4
20260903032540 56 0 0.0 3.0 0.01 0.55 0.55 91 1009.4
20260903032039 56 0 0.0 3.0 0.01 0.55 0.55 91 1009.4
20260903031559 56 191 0.0 7.0 0.01 0.55 0.55 91 1009.4
20260903031038 56 0 0.0 7.0 0.01 0.55 0.55 91 1009.3
20260903030540 56 178 0.0 7.0 0.00 0.54 0.54 91 1009.3
20260903030103 56 204 2.0 7.0 0.00 0.54 0.54 91 1009.4
20260903025541 57 0 0.0 3.0 0.00 0.54 0.54 91 1009.4
20260903025040 57 226 1.0 2.0 0.00 0.54 0.54 91 1009.2
20260903024606 57 0 0.0 2.0 0.00 0.54 0.54 91 1009.1
20260903024039 57 226 0.0 5.0 0.00 0.54 0.54 91 1009.0
20260903023540 57 226 0.0 6.0 0.00 0.54 0.54 91 1009.0
20260903023105 57 196 0.0 6.0 0.00 0.54 0.54 91 1009.0
20260903022538 57 0 0.0 5.0 0.00 0.54 0.54 91 1009.0
20260903022038 57 274 1.0 5.0 0.00 0.54 0.54 91 1009.0
20260903021555 57 184 1.0 3.0 0.00 0.54 0.54 91 1009.1
20260903021039 57 196 1.0 3.0 0.00 0.54 0.54 91 1009.0
20260903020539 57 0 1.0 4.0 0.00 0.54 0.54 91 1008.9
20260903020056 57 188 0.0 4.0 0.00 0.54 0.54 91 1008.7
20260903015539 57 206 1.0 5.0 0.00 0.54 0.54 91 1008.6
20260903015037 57 148 1.0 5.0 0.00 0.54 0.54 91 1008.7
20260903014557 57 200 1.0 4.0 0.00 0.54 0.54 91 1008.7
20260903014039 57 0 0.0 3.0 0.00 0.54 0.54 91 1008.5
20260903013541 57 229 0.0 4.0 0.00 0.54 0.54 91 1008.6
20260903013109 57 220 1.0 5.0 0.01 0.54 0.54 91 1008.6
20260903012540 57 220 1.0 5.0 0.01 0.54 0.54 91 1008.5
20260903012038 58 226 1.0 4.0 0.01 0.54 0.54 91 1008.5
20260903011555 58 190 0.0 4.0 0.01 0.54 0.54 91 1008.3
20260903011038 58 236 0.0 5.0 0.02 0.54 0.54 91 1008.3
20260903010540 57 221 1.0 5.0 0.02 0.54 0.54 91 1008.2
20260903010056 57 0 0.0 5.0 0.02 0.54 0.54 91 1008.2
20260903005539 57 0 1.0 5.0 0.03 0.54 0.54 91 1008.0
20260903005038 57 200 1.0 5.0 0.05 0.54 0.54 91 1008.1
20260903004606 57 190 2.0 5.0 0.07 0.54 0.54 91 1008.1
20260903004043 57 0 1.0 3.0 0.12 0.54 0.54 91 1007.9
20260903003538 57 224 1.0 3.0 0.18 0.54 0.54 90 1007.9
20260903003100 57 188 1.0 3.0 0.18 0.52 0.52 90 1007.8
20260903002538 57 188 1.0 2.0 0.18 0.52 0.52 90 1008.0
20260903002040 57 0 0.0 0.0 0.18 0.52 0.52 90 1007.9
20260903001558 57 0 0.0 0.0 0.18 0.52 0.52 90 1007.9
20260903001037 57 0 0.0 1.0 0.17 0.52 0.52 90 1007.8
20260903000537 57 0 0.0 3.0 0.17 0.52 0.52 90 1007.8
20260903000054 57 183 0.0 3.0 0.17 0.52 0.52 90 1007.8
20260902235539 57 183 0.0 4.0 0.16 0.51 0.51 90 1007.7
20260902235038 57 0 1.0 4.0 0.14 0.49 0.49 89 1007.7
20260902234610 58 172 0.0 4.0 0.12 0.47 0.47 89 1007.7
20260902234040 58 205 1.0 9.0 0.06 0.41 0.41 89 1007.8
20260902233538 58 230 3.0 9.0 0.01 0.36 0.36 89 1007.6
20260902233101 58 0 2.0 5.0 0.00 0.35 0.35 89 1007.5
20260902232538 58 224 1.0 10.0 0.00 0.35 0.35 89 1007.4
20260902232038 58 230 2.0 10.0 0.00 0.35 0.35 89 1007.5
20260902231553 58 192 2.0 11.0 0.00 0.35 0.35 89 1007.5
20260902231038 58 201 1.0 11.0 0.00 0.35 0.35 89 1007.4
20260902230537 58 211 2.0 8.0 0.00 0.35 0.35 89 1007.4
20260902225537 58 171 3.0 8.0 0.00 0.35 0.35 88 1007.3
20260902225041 58 215 2.0 7.0 0.00 0.35 0.35 89 1007.3
20260902224608 58 230 1.0 11.0 0.00 0.35 0.35 89 1007.2
20260902224038 58 247 2.0 11.0 0.00 0.35 0.35 89 1007.3
20260902223541 58 0 3.0 10.0 0.00 0.35 0.35 89 1007.3
20260902223059 58 234 1.0 9.0 0.00 0.35 0.35 89 1007.2
20260902222538 58 233 3.0 9.0 0.00 0.35 0.35 89 1007.3